Theta_e
314 314 313 312 312 312 311 310 306 302 304 309 309 315 314 314 315 315 315 315 315 314 315 315 318 319 323 324 325 325 326 328 331 335 337 340 342 344
313 313 313 313 313 313 312 311 310 307 303 309 310 313 314 314 315 315 315 314 313 314 315 315 317 317 320 321 321 322 324 325 326 328 332 335 337 339
314 313 313 315 313 313 313 312 311 310 305 308 311 315 315 314 315 315 315 315 315 313 313 313 313 314 316 315 316 318 320 322 323 325 328 330 332 334
313 313 313 313 314 314 311 311 310 311 306 302 307 308 309 313 314 313 313 314 314 313 313 312 311 310 310 311 313 314 316 317 319 322 324 325 328 331
313 312 312 312 312 312 310 309 310 310 309 306 304 307 308 309 310 312 314 315 314 313 312 311 310 310 310 309 310 313 313 312 312 315 318 321 324 327
311 310 311 311 310 309 309 309 308 307 306 305 304 305 306 308 309 308 309 313 311 313 312 310 309 310 310 310 311 313 313 310 309 310 311 312 315 319
308 309 311 309 307 307 307 306 305 304 304 303 303 304 304 304 304 307 306 310 312 313 311 312 312 313 316 316 322 320 315 310 308 308 309 309 309 311
307 308 310 308 308 305 306 306 305 302 302 301 302 302 304 305 306 305 304 304 303 313 310 309 312 312 315 315 316 313 311 309 308 308 308 307 307 308
305 306 306 307 304 305 304 303 304 304 304 303 301 303 303 305 306 304 305 305 305 308 307 306 311 310 314 314 312 310 308 307 306 306 306 306 305 304
302 303 303 302 303 300 300 302 306 307 307 306 306 306 307 307 307 306 305 306 306 308 309 302 311 311 314 317 313 309 307 306 305 304 304 304 303 304
299 300 300 302 298 295 299 300 301 303 304 301 301 301 299 298 300 304 303 301 300 305 310 305 309 311 314 318 322 309 309 305 305 304 304 303 301 302
297 301 300 298 294 293 297 296 294 294 296 299 303 303 305 308 301 304 305 301 301 301 309 307 311 309 310 318 319 315 315 304 302 302 303 303 301 320
298 301 303 294 293 293 293 295 293 293 296 297 299 303 305 308 309 308 305 304 301 301 307 308 307 306 306 305 313 315 315 310 312 308 300 300 303 318
297 298 298 293 292 292 294 291 291 294 295 295 294 296 300 304 306 308 307 305 306 304 309 310 307 307 305 305 309 313 312 313 314 311 309 303 302 303
296 295 293 292 293 295 293 292 292 293 291 290 290 292 296 301 309 308 309 307 306 307 309 311 310 309 307 306 305 310 312 313 313 311 311 312 314 313
293 295 293 292 293 292 296 294 292 291 290 288 289 291 295 298 301 308 307 308 306 306 309 312 311 311 306 308 309 311 313 313 311 311 311 314 314 317
292 292 290 288 289 290 290 291 289 289 287 288 288 289 290 294 295 300 306 306 305 304 306 311 313 313 311 309 309 312 315 312 312 311 311 308 312 315
289 288 286 285 286 289 289 289 289 286 286 286 287 287 287 289 291 294 298 306 304 305 305 308 312 310 307 306 303 313 315 315 312 311 310 307 307 310
286 288 285 286 285 285 288 288 285 285 285 285 285 285 286 287 289 291 296 299 307 307 306 311 313 310 306 307 303 296 306 312 311 310 311 308 305 304
286 285 286 287 287 286 287 287 287 286 284 284 283 284 285 286 287 289 292 296 306 308 309 314 315 312 310 309 303 300 292 308 308 301 297 298 295 296
285 285 286 286 286 286 286 286 286 285 284 283 282 282 284 285 285 289 293 293 297 312 311 312 316 297 308 307 303 295 295 295 302 302 300 301 301 302
284 284 285 285 286 285 285 285 284 285 284 282 281 282 283 284 286 289 293 296 304 315 315 311 311 312 315 305 296 295 295 296 296 295 295 296 306 304
283 283 285 285 285 285 285 284 283 284 283 281 281 281 282 284 288 290 294 300 311 318 316 312 307 307 304 298 295 296 295 294 293 292 292 294 296 297
Wind_Speed
7 7 8 8 8 9 9 10 11 15 13 11 12 9 10 11 14 14 16 20 19 20 18 16 19 18 15 14 16 17 16 15 17 15 14 14 15 18
6 8 9 8 9 8 9 9 10 12 15 12 13 14 13 12 15 15 16 19 22 19 17 18 15 15 16 13 15 18 18 16 16 17 16 14 14 16
8 9 11 11 10 10 9 10 11 12 13 11 12 14 16 16 15 13 13 13 13 16 16 18 17 16 15 17 18 20 19 18 16 16 15 14 15 14
10 11 13 10 13 12 10 13 12 13 12 16 11 11 13 15 16 16 12 12 12 15 16 18 20 20 19 20 19 20 17 17 17 15 14 13 14 18
11 13 14 13 13 11 12 12 11 10 11 11 11 10 10 11 13 15 15 12 11 15 17 17 15 15 18 21 20 17 16 15 15 13 12 12 15 15
12 13 13 12 13 14 12 12 11 11 11 11 11 10 9 9 9 11 12 11 9 10 12 13 15 17 20 22 22 21 17 17 15 14 11 11 12 14
13 12 11 14 18 14 11 12 12 10 10 11 11 10 9 8 11 9 9 12 11 10 9 9 9 10 11 14 13 14 14 15 14 12 10 10 12 12
13 12 12 14 11 17 17 18 17 14 15 12 12 13 15 10 10 9 8 8 10 6 6 13 10 10 10 8 10 10 10 13 11 10 10 10 11 11
11 12 12 9 13 13 19 22 19 18 17 15 15 15 16 14 12 10 10 9 10 10 8 12 11 12 8 9 10 11 10 11 10 10 11 13 12 12
11 12 11 11 10 16 18 18 18 16 15 11 13 15 14 13 12 10 10 9 8 10 6 9 11 12 9 9 9 9 9 10 9 9 11 12 12 13
10 11 10 10 16 17 16 17 18 17 17 21 20 21 20 21 18 9 6 5 5 9 5 7 10 11 10 8 1 3 9 5 6 10 10 11 13 13
9 9 5 11 15 16 14 13 14 16 19 21 16 14 13 12 12 11 7 6 5 5 4 4 8 5 8 4 2 2 3 5 7 8 11 13 16 9
8 9 9 17 20 18 13 12 14 18 18 13 12 10 10 10 7 6 8 8 8 8 6 3 5 3 2 5 4 1 2 2 3 3 7 12 15 11
9 9 11 18 17 13 13 16 19 15 10 11 10 10 10 8 8 6 8 9 9 11 9 5 4 3 4 3 6 1 2 1 3 3 4 5 6 10
9 10 14 13 13 10 15 16 16 11 12 11 12 11 10 13 10 8 7 10 10 11 10 12 8 6 4 5 6 4 3 1 1 4 4 7 6 6
12 9 12 13 11 12 13 13 11 10 11 11 11 11 11 10 11 6 6 5 6 7 12 13 7 8 6 6 6 5 1 2 2 2 3 3 3 6
8 9 10 10 11 12 11 13 11 12 12 12 12 12 11 11 10 10 7 5 7 5 6 7 8 9 3 5 7 1 1 1 1 4 3 3 2 2
8 10 11 10 13 14 13 14 12 16 13 13 12 11 12 11 11 11 9 9 7 7 7 7 7 7 4 5 16 1 2 2 3 3 3 3 3 2
11 10 9 10 11 12 13 13 13 12 15 12 13 12 12 11 13 11 9 9 8 7 7 9 9 7 5 2 3 20 4 0 3 3 3 2 3 2
10 11 12 12 12 13 13 14 13 13 13 13 13 13 12 12 13 11 10 9 10 5 7 7 7 7 3 3 4 4 17 3 2 2 2 2 5 13
11 11 11 12 12 13 13 14 15 14 14 14 13 13 13 13 12 11 12 13 12 6 5 5 5 7 6 6 4 3 6 19 11 4 3 3 2 2
10 11 11 12 12 13 14 15 14 15 16 14 14 13 13 12 13 14 12 11 9 4 7 5 4 4 3 3 4 5 3 4 14 25 21 8 1 5
11 11 11 12 12 13 13 14 15 15 15 16 15 15 15 15 12 13 12 11 10 5 9 6 3 4 5 5 6 4 7 4 4 9 13 20 20 21
Wind_Direction
319 304 298 300 291 288 287 285 289 296 297 301 298 298 296 294 292 291 293 290 295 292 284 279 280 286 279 285 284 284 283 279 275 264 250 239 226 208
306 307 300 300 295 291 289 285 280 282 287 291 291 300 295 291 288 288 287 291 284 280 283 285 276 276 275 270 279 283 284 271 268 257 246 236 222 205
310 303 301 299 294 297 295 290 286 283 283 284 294 295 295 293 292 289 286 290 288 284 289 285 280 276 274 277 272 269 272 272 263 251 242 228 220 198
314 305 301 303 300 298 293 290 288 287 287 287 278 279 280 291 292 291 283 285 291 290 290 294 283 277 276 275 268 262 259 261 249 239 231 222 209 196
305 304 302 304 301 304 300 294 291 290 287 284 283 279 275 282 288 286 284 283 276 287 274 269 271 277 276 276 269 267 261 255 243 231 227 217 208 201
304 302 299 302 302 305 296 295 296 295 288 281 279 279 273 273 272 282 284 284 294 295 292 273 274 282 275 266 257 254 256 238 224 220 211 214 212 201
304 300 302 314 305 301 305 305 302 296 291 287 285 283 275 266 262 274 282 291 293 293 299 306 295 293 292 301 259 248 248 224 211 204 202 215 212 209
306 311 313 309 327 318 306 303 302 296 290 289 289 286 285 278 268 263 266 282 298 304 312 304 306 292 285 287 275 258 233 206 204 206 200 209 202 185
308 314 322 330 328 326 319 307 297 289 275 276 277 277 284 282 277 266 256 265 271 288 314 293 303 289 285 280 264 257 222 203 191 195 193 204 190 176
319 312 319 324 327 336 323 316 313 317 317 308 288 278 279 281 275 260 263 275 276 278 270 276 298 299 300 282 277 236 207 211 178 192 196 190 173 173
321 317 315 330 353 329 330 326 322 321 322 312 297 279 270 268 258 267 235 243 265 275 286 264 296 302 289 278 278 293 217 205 190 196 180 169 156 156
322 315 289 3 335 338 340 337 334 325 320 315 315 306 300 284 254 241 242 235 242 285 265 237 287 11 326 31 7 218 151 142 171 173 167 160 153 163
332 343 349 353 344 337 337 348 326 312 312 313 311 314 306 309 279 232 221 227 234 243 261 296 300 297 237 333 302 275 262 133 120 123 146 160 179 162
349 344 347 340 329 326 343 331 323 325 327 329 330 325 326 311 303 271 231 222 230 241 263 219 255 317 309 304 294 228 351 51 99 123 136 136 99 86
351 339 337 334 330 358 345 347 347 350 341 338 333 322 316 310 297 283 254 226 232 238 245 255 256 260 258 262 276 351 248 105 122 124 154 166 152 143
343 2 355 352 342 5 344 5 358 350 340 330 324 318 316 320 322 286 280 260 238 238 234 239 233 238 248 254 265 245 116 9 107 132 149 126 136 154
334 5 8 4 357 359 351 0 349 345 343 337 332 329 326 324 321 324 282 248 243 240 241 239 211 223 255 310 281 264 155 109 143 138 131 116 112 150
21 17 12 6 358 351 348 351 353 347 341 334 331 327 323 321 317 313 304 280 243 229 221 228 207 162 165 143 27 157 179 208 139 144 118 118 127 120
25 12 8 5 357 348 347 349 343 340 331 331 328 327 324 319 319 314 310 305 275 241 193 214 188 188 203 146 126 49 355 100 126 128 138 89 122 81
20 12 5 1 357 352 352 349 343 335 336 333 329 328 326 321 318 317 311 305 307 178 205 189 182 180 167 177 126 28 9 261 116 89 87 62 68 102
11 5 3 358 355 352 348 349 343 337 333 333 330 328 325 323 318 311 305 299 287 216 197 192 154 107 114 131 91 44 21 35 65 109 129 101 108 112
7 358 357 354 353 352 348 348 340 339 337 336 331 329 324 319 315 313 308 306 300 192 123 100 115 132 120 77 105 117 111 61 59 61 45 25 203 148
4 354 353 352 352 350 349 347 343 340 336 334 331 330 327 323 324 314 306 301 288 149 130 129 87 51 64 96 120 105 95 59 49 60 46 33 60 70